Year,Month,Day,Hour,Minute,Value (Times are PST for barometer in hPa)
2008,08,20,00,00,999.22
2008,08,20,00,01,999.22
2008,08,20,00,02,999.22
2008,08,20,00,03,999.22
2008,08,20,00,04,999.22
2008,08,20,00,05,999.22
2008,08,20,00,06,999.22
2008,08,20,00,07,999.22
2008,08,20,00,08,999.22
2008,08,20,00,09,999.22
2008,08,20,00,10,999.22
2008,08,20,00,11,999.22
2008,08,20,00,12,999.22
2008,08,20,00,13,999.22
2008,08,20,00,14,999.22
2008,08,20,00,15,999.12
2008,08,20,00,16,999.12
2008,08,20,00,17,999.12
2008,08,20,00,18,999.12
2008,08,20,00,19,999.12
2008,08,20,00,20,999.12
2008,08,20,00,21,999.12
2008,08,20,00,22,999.12
2008,08,20,00,23,999.12
2008,08,20,00,24,999.12
2008,08,20,00,25,999.12
2008,08,20,00,26,999.12
2008,08,20,00,27,999.12
2008,08,20,00,28,999.12
2008,08,20,00,29,999.12
2008,08,20,00,30,999.15
2008,08,20,00,31,999.15
2008,08,20,00,32,999.15
2008,08,20,00,33,999.15
2008,08,20,00,34,999.15
2008,08,20,00,35,999.15
2008,08,20,00,36,999.15
2008,08,20,00,37,999.15
2008,08,20,00,38,999.15
2008,08,20,00,39,999.15
2008,08,20,00,40,999.15
2008,08,20,00,41,999.15
2008,08,20,00,42,999.15
2008,08,20,00,43,999.15
2008,08,20,00,44,999.15
2008,08,20,00,45,999.31
2008,08,20,00,46,999.32
2008,08,20,00,47,999.32
2008,08,20,00,48,999.32
2008,08,20,00,49,999.32
2008,08,20,00,50,999.32
2008,08,20,00,51,999.32
2008,08,20,00,52,999.32
2008,08,20,00,53,999.32
2008,08,20,00,54,999.32
2008,08,20,00,55,999.32
2008,08,20,00,56,999.32
2008,08,20,00,57,999.32
2008,08,20,00,58,999.32
2008,08,20,00,59,999.32
2008,08,20,01,00,999.46
2008,08,20,01,01,999.46
2008,08,20,01,02,999.46
2008,08,20,01,03,999.46
2008,08,20,01,04,999.46
2008,08,20,01,05,999.46
2008,08,20,01,06,999.46
2008,08,20,01,07,999.46
2008,08,20,01,08,999.46
2008,08,20,01,09,999.46
2008,08,20,01,10,999.46
2008,08,20,01,11,999.46
2008,08,20,01,12,999.46
2008,08,20,01,13,999.46
2008,08,20,01,14,999.46
2008,08,20,01,15,999.49
2008,08,20,01,16,999.49
2008,08,20,01,17,999.49
2008,08,20,01,18,999.49
2008,08,20,01,19,999.49
2008,08,20,01,20,999.49
2008,08,20,01,21,999.49
2008,08,20,01,22,999.49
2008,08,20,01,23,999.49
2008,08,20,01,24,999.49
2008,08,20,01,25,999.49
2008,08,20,01,26,999.49
2008,08,20,01,27,999.49
2008,08,20,01,28,999.49
2008,08,20,01,29,999.49
2008,08,20,01,30,999.53
2008,08,20,01,31,999.53
2008,08,20,01,32,999.53
2008,08,20,01,33,999.53
2008,08,20,01,34,999.53
2008,08,20,01,35,999.53
2008,08,20,01,36,999.53
2008,08,20,01,37,999.53
2008,08,20,01,38,999.53
2008,08,20,01,39,999.53
2008,08,20,01,40,999.53
2008,08,20,01,41,999.53
2008,08,20,01,42,999.53
2008,08,20,01,43,999.53
2008,08,20,01,44,999.53
2008,08,20,01,45,999.75
2008,08,20,01,46,999.76
2008,08,20,01,47,999.76
2008,08,20,01,48,999.76
2008,08,20,01,49,999.76
2008,08,20,01,50,999.76
2008,08,20,01,51,999.76
2008,08,20,01,52,999.76
2008,08,20,01,53,999.76
2008,08,20,01,54,999.76
2008,08,20,01,55,999.76
2008,08,20,01,56,999.76
2008,08,20,01,57,999.76
2008,08,20,01,58,999.76
2008,08,20,01,59,999.76
2008,08,20,02,00,999.83
2008,08,20,02,01,999.83
2008,08,20,02,02,999.83
2008,08,20,02,03,999.83
2008,08,20,02,04,999.83
2008,08,20,02,05,999.83
2008,08,20,02,06,999.83
2008,08,20,02,07,999.83
2008,08,20,02,08,999.83
2008,08,20,02,09,999.83
2008,08,20,02,10,999.83
2008,08,20,02,11,999.83
2008,08,20,02,12,999.83
2008,08,20,02,13,999.83
2008,08,20,02,14,999.83
2008,08,20,02,15,999.99
2008,08,20,02,16,1000.00
2008,08,20,02,17,1000.00
2008,08,20,02,18,1000.00
2008,08,20,02,19,1000.00
2008,08,20,02,20,1000.00
2008,08,20,02,21,1000.00
2008,08,20,02,22,1000.00
2008,08,20,02,23,1000.00
2008,08,20,02,24,1000.00
2008,08,20,02,25,1000.00
2008,08,20,02,26,1000.00
2008,08,20,02,27,1000.00
2008,08,20,02,28,1000.00
2008,08,20,02,29,1000.00
2008,08,20,02,30,1000.03
2008,08,20,02,31,1000.03
2008,08,20,02,32,1000.03
2008,08,20,02,33,1000.03
2008,08,20,02,34,1000.03
2008,08,20,02,35,1000.03
2008,08,20,02,36,1000.03
2008,08,20,02,37,1000.03
2008,08,20,02,38,1000.03
2008,08,20,02,39,1000.03
2008,08,20,02,40,1000.03
2008,08,20,02,41,1000.03
2008,08,20,02,42,1000.03
2008,08,20,02,43,1000.03
2008,08,20,02,44,1000.03
2008,08,20,02,45,1000.07
2008,08,20,02,46,1000.07
2008,08,20,02,47,1000.07
2008,08,20,02,48,1000.07
2008,08,20,02,49,1000.07
2008,08,20,02,50,1000.07
2008,08,20,02,51,1000.07
2008,08,20,02,52,1000.07
2008,08,20,02,53,1000.07
2008,08,20,02,54,1000.07
2008,08,20,02,55,1000.07
2008,08,20,02,56,1000.07
2008,08,20,02,57,1000.07
2008,08,20,02,58,1000.07
2008,08,20,02,59,1000.07
2008,08,20,03,00,1000.17
2008,08,20,03,01,1000.17
2008,08,20,03,02,1000.17
2008,08,20,03,03,1000.17
2008,08,20,03,04,1000.17
2008,08,20,03,05,1000.17
2008,08,20,03,06,1000.17
2008,08,20,03,07,1000.17
2008,08,20,03,08,1000.17
2008,08,20,03,09,1000.17
2008,08,20,03,10,1000.17
2008,08,20,03,11,1000.17
2008,08,20,03,12,1000.17
2008,08,20,03,13,1000.17
2008,08,20,03,14,1000.17
2008,08,20,03,15,1000.30
2008,08,20,03,16,1000.31
2008,08,20,03,17,1000.31
2008,08,20,03,18,1000.31
2008,08,20,03,19,1000.31
2008,08,20,03,20,1000.31
2008,08,20,03,21,1000.31
2008,08,20,03,22,1000.31
2008,08,20,03,23,1000.31
2008,08,20,03,24,1000.31
2008,08,20,03,25,1000.31
2008,08,20,03,26,1000.31
2008,08,20,03,27,1000.31
2008,08,20,03,28,1000.31
2008,08,20,03,29,1000.31
2008,08,20,03,30,1000.37
2008,08,20,03,31,1000.37
2008,08,20,03,32,1000.37
2008,08,20,03,33,1000.37
2008,08,20,03,34,1000.37
2008,08,20,03,35,1000.37
2008,08,20,03,36,1000.37
2008,08,20,03,37,1000.37
2008,08,20,03,38,1000.37
2008,08,20,03,39,1000.37
2008,08,20,03,40,1000.37
2008,08,20,03,41,1000.37
2008,08,20,03,42,1000.37
2008,08,20,03,43,1000.37
2008,08,20,03,44,1000.37
2008,08,20,03,45,1000.24
2008,08,20,03,46,1000.24
2008,08,20,03,47,1000.24
2008,08,20,03,48,1000.24
2008,08,20,03,49,1000.24
2008,08,20,03,50,1000.24
2008,08,20,03,51,1000.24
2008,08,20,03,52,1000.24
2008,08,20,03,53,1000.24
2008,08,20,03,54,1000.24
2008,08,20,03,55,1000.24
2008,08,20,03,56,1000.24
2008,08,20,03,57,1000.24
2008,08,20,03,58,1000.24
2008,08,20,03,59,1000.24
2008,08,20,04,00,1000.31
2008,08,20,04,01,1000.31
2008,08,20,04,02,1000.31
2008,08,20,04,03,1000.31
2008,08,20,04,04,1000.31
2008,08,20,04,05,1000.31
2008,08,20,04,06,1000.31
2008,08,20,04,07,1000.31
2008,08,20,04,08,1000.31
2008,08,20,04,09,1000.31
2008,08,20,04,10,1000.31
2008,08,20,04,11,1000.31
2008,08,20,04,12,1000.31
2008,08,20,04,13,1000.31
2008,08,20,04,14,1000.31
2008,08,20,04,15,1000.51
2008,08,20,04,16,1000.51
2008,08,20,04,17,1000.51
2008,08,20,04,18,1000.51
2008,08,20,04,19,1000.51
2008,08,20,04,20,1000.51
2008,08,20,04,21,1000.51
2008,08,20,04,22,1000.51
2008,08,20,04,23,1000.51
2008,08,20,04,24,1000.51
2008,08,20,04,25,1000.51
2008,08,20,04,26,1000.51
2008,08,20,04,27,1000.51
2008,08,20,04,28,1000.51
2008,08,20,04,29,1000.51
2008,08,20,04,30,1000.37
2008,08,20,04,31,1000.37
2008,08,20,04,32,1000.37
2008,08,20,04,33,1000.37
2008,08,20,04,34,1000.37
2008,08,20,04,35,1000.37
2008,08,20,04,36,1000.37
2008,08,20,04,37,1000.37
2008,08,20,04,38,1000.37
2008,08,20,04,39,1000.37
2008,08,20,04,40,1000.37
2008,08,20,04,41,1000.37
2008,08,20,04,42,1000.37
2008,08,20,04,43,1000.37
2008,08,20,04,44,1000.37
2008,08,20,04,45,1000.24
2008,08,20,04,46,1000.24
2008,08,20,04,47,1000.24
2008,08,20,04,48,1000.24
2008,08,20,04,49,1000.24
2008,08,20,04,50,1000.24
2008,08,20,04,51,1000.24
2008,08,20,04,52,1000.24
2008,08,20,04,53,1000.24
2008,08,20,04,54,1000.24
2008,08,20,04,55,1000.24
2008,08,20,04,56,1000.24
2008,08,20,04,57,1000.24
2008,08,20,04,58,1000.24
2008,08,20,04,59,1000.24
2008,08,20,05,00,1000.48
2008,08,20,05,01,1000.48
2008,08,20,05,02,1000.48
2008,08,20,05,03,1000.48
2008,08,20,05,04,1000.48
2008,08,20,05,05,1000.48
2008,08,20,05,06,1000.48
2008,08,20,05,07,1000.48
2008,08,20,05,08,1000.48
2008,08,20,05,09,1000.48
2008,08,20,05,10,1000.48
2008,08,20,05,11,1000.48
2008,08,20,05,12,1000.48
2008,08,20,05,13,1000.48
2008,08,20,05,14,1000.48
2008,08,20,05,15,1000.51
2008,08,20,05,16,1000.51
2008,08,20,05,17,1000.51
2008,08,20,05,18,1000.51
2008,08,20,05,19,1000.51
2008,08,20,05,20,1000.51
2008,08,20,05,21,1000.51
2008,08,20,05,22,1000.51
2008,08,20,05,23,1000.51
2008,08,20,05,24,1000.51
2008,08,20,05,25,1000.51
2008,08,20,05,26,1000.51
2008,08,20,05,27,1000.51
2008,08,20,05,28,1000.51
2008,08,20,05,29,1000.51
2008,08,20,05,30,1000.44
2008,08,20,05,31,1000.44
2008,08,20,05,32,1000.44
2008,08,20,05,33,1000.44
2008,08,20,05,34,1000.44
2008,08,20,05,35,1000.44
2008,08,20,05,36,1000.44
2008,08,20,05,37,1000.44
2008,08,20,05,38,1000.44
2008,08,20,05,39,1000.44
2008,08,20,05,40,1000.44
2008,08,20,05,41,1000.44
2008,08,20,05,42,1000.44
2008,08,20,05,43,1000.44
2008,08,20,05,44,1000.44
2008,08,20,05,45,1000.64
2008,08,20,05,46,1000.64
2008,08,20,05,47,1000.64
2008,08,20,05,48,1000.64
2008,08,20,05,49,1000.64
2008,08,20,05,50,1000.64
2008,08,20,05,51,1000.64
2008,08,20,05,52,1000.64
2008,08,20,05,53,1000.64
2008,08,20,05,54,1000.64
2008,08,20,05,55,1000.64
2008,08,20,05,56,1000.64
2008,08,20,05,57,1000.64
2008,08,20,05,58,1000.64
2008,08,20,05,59,1000.64
2008,08,20,06,00,1000.58
2008,08,20,06,01,1000.58
2008,08,20,06,02,1000.58
2008,08,20,06,03,1000.58
2008,08,20,06,04,1000.58
2008,08,20,06,05,1000.58
2008,08,20,06,06,1000.58
2008,08,20,06,07,1000.58
2008,08,20,06,08,1000.58
2008,08,20,06,09,1000.58
2008,08,20,06,10,1000.58
2008,08,20,06,11,1000.58
2008,08,20,06,12,1000.58
2008,08,20,06,13,1000.58
2008,08,20,06,14,1000.58
2008,08,20,06,15,1000.61
2008,08,20,06,16,1000.61
2008,08,20,06,17,1000.61
2008,08,20,06,18,1000.61
2008,08,20,06,19,1000.61
2008,08,20,06,20,1000.61
2008,08,20,06,21,1000.61
2008,08,20,06,22,1000.61
2008,08,20,06,23,1000.61
2008,08,20,06,24,1000.61
2008,08,20,06,25,1000.61
2008,08,20,06,26,1000.61
2008,08,20,06,27,1000.61
2008,08,20,06,28,1000.61
2008,08,20,06,29,1000.61
2008,08,20,06,30,1000.48
2008,08,20,06,31,1000.48
2008,08,20,06,32,1000.48
2008,08,20,06,33,1000.48
2008,08,20,06,34,1000.48
2008,08,20,06,35,1000.48
2008,08,20,06,36,1000.48
2008,08,20,06,37,1000.48
2008,08,20,06,38,1000.48
2008,08,20,06,39,1000.48
2008,08,20,06,40,1000.48
2008,08,20,06,41,1000.48
2008,08,20,06,42,1000.48
2008,08,20,06,43,1000.48
2008,08,20,06,44,1000.48
2008,08,20,06,45,1000.61
2008,08,20,06,46,1000.61
2008,08,20,06,47,1000.61
2008,08,20,06,48,1000.61
2008,08,20,06,49,1000.61
2008,08,20,06,50,1000.61
2008,08,20,06,51,1000.61
2008,08,20,06,52,1000.61
2008,08,20,06,53,1000.61
2008,08,20,06,54,1000.61
2008,08,20,06,55,1000.61
2008,08,20,06,56,1000.61
2008,08,20,06,57,1000.61
2008,08,20,06,58,1000.61
2008,08,20,06,59,1000.61
2008,08,20,07,00,1000.64
2008,08,20,07,01,1000.64
2008,08,20,07,02,1000.64
2008,08,20,07,03,1000.64
2008,08,20,07,04,1000.64
2008,08,20,07,05,1000.64
2008,08,20,07,06,1000.64
2008,08,20,07,07,1000.64
2008,08,20,07,08,1000.64
2008,08,20,07,09,1000.64
2008,08,20,07,10,1000.64
2008,08,20,07,11,1000.64
2008,08,20,07,12,1000.64
2008,08,20,07,13,1000.64
2008,08,20,07,14,1000.64
2008,08,20,07,15,1000.61
2008,08,20,07,16,1000.61
2008,08,20,07,17,1000.61
2008,08,20,07,18,1000.61
2008,08,20,07,19,1000.61
2008,08,20,07,20,1000.61
2008,08,20,07,21,1000.61
2008,08,20,07,22,1000.61
2008,08,20,07,23,1000.61
2008,08,20,07,24,1000.61
2008,08,20,07,25,1000.61
2008,08,20,07,26,1000.61
2008,08,20,07,27,1000.61
2008,08,20,07,28,1000.61
2008,08,20,07,29,1000.61
2008,08,20,07,30,1000.68
2008,08,20,07,31,1000.68
2008,08,20,07,32,1000.68
2008,08,20,07,33,1000.68
2008,08,20,07,34,1000.68
2008,08,20,07,35,1000.68
2008,08,20,07,36,1000.68
2008,08,20,07,37,1000.68
2008,08,20,07,38,1000.68
2008,08,20,07,39,1000.68
2008,08,20,07,40,1000.68
2008,08,20,07,41,1000.68
2008,08,20,07,42,1000.68
2008,08,20,07,43,1000.68
2008,08,20,07,44,1000.68
2008,08,20,07,45,1000.71
2008,08,20,07,46,1000.71
2008,08,20,07,47,1000.71
2008,08,20,07,48,1000.71
2008,08,20,07,49,1000.71
2008,08,20,07,50,1000.71
2008,08,20,07,51,1000.71
2008,08,20,07,52,1000.71
2008,08,20,07,53,1000.71
2008,08,20,07,54,1000.71
2008,08,20,07,55,1000.71
2008,08,20,07,56,1000.71
2008,08,20,07,57,1000.71
2008,08,20,07,58,1000.71
2008,08,20,07,59,1000.71
2008,08,20,08,00,1000.64
2008,08,20,08,01,1000.64
2008,08,20,08,02,1000.64
2008,08,20,08,03,1000.64
2008,08,20,08,04,1000.64
2008,08,20,08,05,1000.64
2008,08,20,08,06,1000.64
2008,08,20,08,07,1000.64
2008,08,20,08,08,1000.64
2008,08,20,08,09,1000.64
2008,08,20,08,10,1000.64
2008,08,20,08,11,1000.64
2008,08,20,08,12,1000.64
2008,08,20,08,13,1000.64
2008,08,20,08,14,1000.64
2008,08,20,08,15,1000.64
2008,08,20,08,16,1000.64
2008,08,20,08,17,1000.64
2008,08,20,08,18,1000.64
2008,08,20,08,19,1000.64
2008,08,20,08,20,1000.64
2008,08,20,08,21,1000.64
2008,08,20,08,22,1000.64
2008,08,20,08,23,1000.64
2008,08,20,08,24,1000.64
2008,08,20,08,25,1000.64
2008,08,20,08,26,1000.64
2008,08,20,08,27,1000.64
2008,08,20,08,28,1000.64
2008,08,20,08,29,1000.64
2008,08,20,08,30,1000.68
2008,08,20,08,31,1000.68
2008,08,20,08,32,1000.68
2008,08,20,08,33,1000.68
2008,08,20,08,34,1000.68
2008,08,20,08,35,1000.68
2008,08,20,08,36,1000.68
2008,08,20,08,37,1000.68
2008,08,20,08,38,1000.68
2008,08,20,08,39,1000.68
2008,08,20,08,40,1000.68
2008,08,20,08,41,1000.68
2008,08,20,08,42,1000.68
2008,08,20,08,43,1000.68
2008,08,20,08,44,1000.68
2008,08,20,08,45,1001.08
2008,08,20,08,46,1001.08
2008,08,20,08,47,1001.08
2008,08,20,08,48,1001.08
2008,08,20,08,49,1001.08
2008,08,20,08,50,1001.08
2008,08,20,08,51,1001.08
2008,08,20,08,52,1001.08
2008,08,20,08,53,1001.08
2008,08,20,08,54,1001.08
2008,08,20,08,55,1001.08
2008,08,20,08,56,1001.08
2008,08,20,08,57,1001.08
2008,08,20,08,58,1001.08
2008,08,20,08,59,1001.08
2008,08,20,09,00,1001.15
2008,08,20,09,01,1001.15
2008,08,20,09,02,1001.15
2008,08,20,09,03,1001.15
2008,08,20,09,04,1001.15
2008,08,20,09,05,1001.15
2008,08,20,09,06,1001.15
2008,08,20,09,07,1001.15
2008,08,20,09,08,1001.15
2008,08,20,09,09,1001.15
2008,08,20,09,10,1001.15
2008,08,20,09,11,1001.15
2008,08,20,09,12,1001.15
2008,08,20,09,13,1001.15
2008,08,20,09,14,1001.15
2008,08,20,09,15,1001.39
2008,08,20,09,16,1001.39
2008,08,20,09,17,1001.39
2008,08,20,09,18,1001.39
2008,08,20,09,19,1001.39
2008,08,20,09,20,1001.39
2008,08,20,09,21,1001.39
2008,08,20,09,22,1001.39
2008,08,20,09,23,1001.39
2008,08,20,09,24,1001.39
2008,08,20,09,25,1001.39
2008,08,20,09,26,1001.39
2008,08,20,09,27,1001.39
2008,08,20,09,28,1001.39
2008,08,20,09,29,1001.39
2008,08,20,09,30,1001.25
2008,08,20,09,31,1001.25
2008,08,20,09,32,1001.25
2008,08,20,09,33,1001.25
2008,08,20,09,34,1001.25
2008,08,20,09,35,1001.25
2008,08,20,09,36,1001.25
2008,08,20,09,37,1001.25
2008,08,20,09,38,1001.25
2008,08,20,09,39,1001.25
2008,08,20,09,40,1001.25
2008,08,20,09,41,1001.25
2008,08,20,09,42,1001.25
2008,08,20,09,43,1001.25
2008,08,20,09,44,1001.25
2008,08,20,09,45,1001.08
2008,08,20,09,46,1001.08
2008,08,20,09,47,1001.08
2008,08,20,09,48,1001.08
2008,08,20,09,49,1001.08
2008,08,20,09,50,1001.08
2008,08,20,09,51,1001.08
2008,08,20,09,52,1001.08
2008,08,20,09,53,1001.08
2008,08,20,09,54,1001.08
2008,08,20,09,55,1001.08
2008,08,20,09,56,1001.08
2008,08,20,09,57,1001.08
2008,08,20,09,58,1001.08
2008,08,20,09,59,1001.08
2008,08,20,10,00,1001.42
2008,08,20,10,01,1001.42
2008,08,20,10,02,1001.42
2008,08,20,10,03,1001.42
2008,08,20,10,04,1001.42
2008,08,20,10,05,1001.42
2008,08,20,10,06,1001.42
2008,08,20,10,07,1001.42
2008,08,20,10,08,1001.42
2008,08,20,10,09,1001.42
2008,08,20,10,10,1001.42
2008,08,20,10,11,1001.42
2008,08,20,10,12,1001.42
2008,08,20,10,13,1001.42
2008,08,20,10,14,1001.42
2008,08,20,10,15,1001.52
2008,08,20,10,16,1001.52
2008,08,20,10,17,1001.52
2008,08,20,10,18,1001.52
2008,08,20,10,19,1001.52
2008,08,20,10,20,1001.52
2008,08,20,10,21,1001.52
2008,08,20,10,22,1001.52
2008,08,20,10,23,1001.52
2008,08,20,10,24,1001.52
2008,08,20,10,25,1001.52
2008,08,20,10,26,1001.52
2008,08,20,10,27,1001.52
2008,08,20,10,28,1001.52
2008,08,20,10,29,1001.52
2008,08,20,10,30,1001.49
2008,08,20,10,31,1001.49
2008,08,20,10,32,1001.49
2008,08,20,10,33,1001.49
2008,08,20,10,34,1001.49
2008,08,20,10,35,1001.49
2008,08,20,10,36,1001.49
2008,08,20,10,37,1001.49
2008,08,20,10,38,1001.49
2008,08,20,10,39,1001.49
2008,08,20,10,40,1001.49
2008,08,20,10,41,1001.49
2008,08,20,10,42,1001.49
2008,08,20,10,43,1001.49
2008,08,20,10,44,1001.49
2008,08,20,10,45,1001.46
2008,08,20,10,46,1001.46
2008,08,20,10,47,1001.46
2008,08,20,10,48,1001.46
2008,08,20,10,49,1001.46
2008,08,20,10,50,1001.46
2008,08,20,10,51,1001.46
2008,08,20,10,52,1001.46
2008,08,20,10,53,1001.46
2008,08,20,10,54,1001.46
2008,08,20,10,55,1001.46
2008,08,20,10,56,1001.46
2008,08,20,10,57,1001.46
2008,08,20,10,58,1001.46
2008,08,20,10,59,1001.46
2008,08,20,11,00,1001.66
2008,08,20,11,01,1001.66
2008,08,20,11,02,1001.66
2008,08,20,11,03,1001.66
2008,08,20,11,04,1001.66
2008,08,20,11,05,1001.66
2008,08,20,11,06,1001.66
2008,08,20,11,07,1001.66
2008,08,20,11,08,1001.66
2008,08,20,11,09,1001.66
2008,08,20,11,10,1001.66
2008,08,20,11,11,1001.66
2008,08,20,11,12,1001.66
2008,08,20,11,13,1001.66
2008,08,20,11,14,1001.66
2008,08,20,11,15,1001.69
2008,08,20,11,16,1001.69
2008,08,20,11,17,1001.69
2008,08,20,11,18,1001.69
2008,08,20,11,19,1001.69
2008,08,20,11,20,1001.69
2008,08,20,11,21,1001.69
2008,08,20,11,22,1001.69
2008,08,20,11,23,1001.69
2008,08,20,11,24,1001.69
2008,08,20,11,25,1001.69
2008,08,20,11,26,1001.69
2008,08,20,11,27,1001.69
2008,08,20,11,28,1001.69
2008,08,20,11,29,1001.69
2008,08,20,11,30,1001.90
2008,08,20,11,31,1001.90
2008,08,20,11,32,1001.90
2008,08,20,11,33,1001.90
2008,08,20,11,34,1001.90
2008,08,20,11,35,1001.90
2008,08,20,11,36,1001.90
2008,08,20,11,37,1001.90
2008,08,20,11,38,1001.90
2008,08,20,11,39,1001.90
2008,08,20,11,40,1001.90
2008,08,20,11,41,1001.90
2008,08,20,11,42,1001.90
2008,08,20,11,43,1001.90
2008,08,20,11,44,1001.90
2008,08,20,11,45,1001.80
2008,08,20,11,46,1001.80
2008,08,20,11,47,1001.80
2008,08,20,11,48,1001.80
2008,08,20,11,49,1001.80
2008,08,20,11,50,1001.80
2008,08,20,11,51,1001.80
2008,08,20,11,52,1001.80
2008,08,20,11,53,1001.80
2008,08,20,11,54,1001.80
2008,08,20,11,55,1001.80
2008,08,20,11,56,1001.80
2008,08,20,11,57,1001.80
2008,08,20,11,58,1001.80
2008,08,20,11,59,1001.80
2008,08,20,12,00,1001.66
2008,08,20,12,01,1001.66
2008,08,20,12,02,1001.66
2008,08,20,12,03,1001.66
2008,08,20,12,04,1001.66
2008,08,20,12,05,1001.66
2008,08,20,12,06,1001.66
2008,08,20,12,07,1001.66
2008,08,20,12,08,1001.66
2008,08,20,12,09,1001.66
2008,08,20,12,10,1001.66
2008,08,20,12,11,1001.66
2008,08,20,12,12,1001.66
2008,08,20,12,13,1001.66
2008,08,20,12,14,1001.66
2008,08,20,12,15,1001.69
2008,08,20,12,16,1001.69
2008,08,20,12,17,1001.69
2008,08,20,12,18,1001.69
2008,08,20,12,19,1001.69
2008,08,20,12,20,1001.69
2008,08,20,12,21,1001.69
2008,08,20,12,22,1001.69
2008,08,20,12,23,1001.69
2008,08,20,12,24,1001.69
2008,08,20,12,25,1001.69
2008,08,20,12,26,1001.69
2008,08,20,12,27,1001.69
2008,08,20,12,28,1001.69
2008,08,20,12,29,1001.69
2008,08,20,12,30,1001.73
2008,08,20,12,31,1001.73
2008,08,20,12,32,1001.73
2008,08,20,12,33,1001.73
2008,08,20,12,34,1001.73
2008,08,20,12,35,1001.73
2008,08,20,12,36,1001.73
2008,08,20,12,37,1001.73
2008,08,20,12,38,1001.73
2008,08,20,12,39,1001.73
2008,08,20,12,40,1001.73
2008,08,20,12,41,1001.73
2008,08,20,12,42,1001.73
2008,08,20,12,43,1001.73
2008,08,20,12,44,1001.73
2008,08,20,12,45,1001.73
2008,08,20,12,46,1001.73
2008,08,20,12,47,1001.73
2008,08,20,12,48,1001.73
2008,08,20,12,49,1001.73
2008,08,20,12,50,1001.73
2008,08,20,12,51,1001.73
2008,08,20,12,52,1001.73
2008,08,20,12,53,1001.73
2008,08,20,12,54,1001.73
2008,08,20,12,55,1001.73
2008,08,20,12,56,1001.73
2008,08,20,12,57,1001.73
2008,08,20,12,58,1001.73
2008,08,20,12,59,1001.73
2008,08,20,13,00,1001.73
2008,08,20,13,01,1001.73
2008,08,20,13,02,1001.73
2008,08,20,13,03,1001.73
2008,08,20,13,04,1001.73
2008,08,20,13,05,1001.73
2008,08,20,13,06,1001.73
2008,08,20,13,07,1001.73
2008,08,20,13,08,1001.73
2008,08,20,13,09,1001.73
2008,08,20,13,10,1001.73
2008,08,20,13,11,1001.73
2008,08,20,13,12,1001.73
2008,08,20,13,13,1001.73
2008,08,20,13,14,1001.73
2008,08,20,13,15,1001.63
2008,08,20,13,16,1001.63
2008,08,20,13,17,1001.63
2008,08,20,13,18,1001.63
2008,08,20,13,19,1001.63
2008,08,20,13,20,1001.63
2008,08,20,13,21,1001.63
2008,08,20,13,22,1001.63
2008,08,20,13,23,1001.63
2008,08,20,13,24,1001.63
2008,08,20,13,25,1001.63
2008,08,20,13,26,1001.63
2008,08,20,13,27,1001.63
2008,08,20,13,28,1001.63
2008,08,20,13,29,1001.63
2008,08,20,13,30,1001.42
2008,08,20,13,31,1001.42
2008,08,20,13,32,1001.42
2008,08,20,13,33,1001.42
2008,08,20,13,34,1001.42
2008,08,20,13,35,1001.42
2008,08,20,13,36,1001.42
2008,08,20,13,37,1001.42
2008,08,20,13,38,1001.42
2008,08,20,13,39,1001.42
2008,08,20,13,40,1001.42
2008,08,20,13,41,1001.42
2008,08,20,13,42,1001.42
2008,08,20,13,43,1001.42
2008,08,20,13,44,1001.42
2008,08,20,13,45,1001.19
2008,08,20,13,46,1001.19
2008,08,20,13,47,1001.19
2008,08,20,13,48,1001.19
2008,08,20,13,49,1001.19
2008,08,20,13,50,1001.19
2008,08,20,13,51,1001.19
2008,08,20,13,52,1001.19
2008,08,20,13,53,1001.19
2008,08,20,13,54,1001.19
2008,08,20,13,55,1001.19
2008,08,20,13,56,1001.19
2008,08,20,13,57,1001.19
2008,08,20,13,58,1001.19
2008,08,20,13,59,1001.19
2008,08,20,14,00,1000.88
2008,08,20,14,01,1000.88
2008,08,20,14,02,1000.88
2008,08,20,14,03,1000.88
2008,08,20,14,04,1000.88
2008,08,20,14,05,1000.88
2008,08,20,14,06,1000.88
2008,08,20,14,07,1000.88
2008,08,20,14,08,1000.88
2008,08,20,14,09,1000.88
2008,08,20,14,10,1000.88
2008,08,20,14,11,1000.88
2008,08,20,14,12,1000.88
2008,08,20,14,13,1000.88
2008,08,20,14,14,1000.88
2008,08,20,14,15,1000.51
2008,08,20,14,16,1000.51
2008,08,20,14,17,1000.51
2008,08,20,14,18,1000.51
2008,08,20,14,19,1000.51
2008,08,20,14,20,1000.51
2008,08,20,14,21,1000.51
2008,08,20,14,22,1000.51
2008,08,20,14,23,1000.51
2008,08,20,14,24,1000.51
2008,08,20,14,25,1000.51
2008,08,20,14,26,1000.51
2008,08,20,14,27,1000.51
2008,08,20,14,28,1000.51
2008,08,20,14,29,1000.51
2008,08,20,14,30,1000.48
2008,08,20,14,31,1000.48
2008,08,20,14,32,1000.48
2008,08,20,14,33,1000.48
2008,08,20,14,34,1000.48
2008,08,20,14,35,1000.48
2008,08,20,14,36,1000.48
2008,08,20,14,37,1000.48
2008,08,20,14,38,1000.48
2008,08,20,14,39,1000.48
2008,08,20,14,40,1000.48
2008,08,20,14,41,1000.48
2008,08,20,14,42,1000.48
2008,08,20,14,43,1000.48
2008,08,20,14,44,1000.48
2008,08,20,14,45,1000.58
2008,08,20,14,46,1000.58
2008,08,20,14,47,1000.58
2008,08,20,14,48,1000.58
2008,08,20,14,49,1000.58
2008,08,20,14,50,1000.58
2008,08,20,14,51,1000.58
2008,08,20,14,52,1000.58
2008,08,20,14,53,1000.58
2008,08,20,14,54,1000.58
2008,08,20,14,55,1000.58
2008,08,20,14,56,1000.58
2008,08,20,14,57,1000.58
2008,08,20,14,58,1000.58
2008,08,20,14,59,1000.58
2008,08,20,15,00,999.83
2008,08,20,15,01,999.83
2008,08,20,15,02,999.83
2008,08,20,15,03,999.83
2008,08,20,15,04,999.83
2008,08,20,15,05,999.83
2008,08,20,15,06,999.83
2008,08,20,15,07,999.83
2008,08,20,15,08,999.83
2008,08,20,15,09,999.83
2008,08,20,15,10,999.83
2008,08,20,15,11,999.83
2008,08,20,15,12,999.83
2008,08,20,15,13,999.83
2008,08,20,15,14,999.83
2008,08,20,15,15,999.56
2008,08,20,15,16,999.56
2008,08,20,15,17,999.56
2008,08,20,15,18,999.56
2008,08,20,15,19,999.56
2008,08,20,15,20,999.56
2008,08,20,15,21,999.56
2008,08,20,15,22,999.56
2008,08,20,15,23,999.56
2008,08,20,15,24,999.56
2008,08,20,15,25,999.56
2008,08,20,15,26,999.56
2008,08,20,15,27,999.56
2008,08,20,15,28,999.56
2008,08,20,15,29,999.56
2008,08,20,15,30,999.97
2008,08,20,15,31,999.97
2008,08,20,15,32,999.97
2008,08,20,15,33,999.97
2008,08,20,15,34,999.97
2008,08,20,15,35,999.97
2008,08,20,15,36,999.97
2008,08,20,15,37,999.97
2008,08,20,15,38,999.97
2008,08,20,15,39,999.97
2008,08,20,15,40,999.97
2008,08,20,15,41,999.97
2008,08,20,15,42,999.97
2008,08,20,15,43,999.97
2008,08,20,15,44,999.97
2008,08,20,15,45,999.90
2008,08,20,15,46,999.90
2008,08,20,15,47,999.90
2008,08,20,15,48,999.90
2008,08,20,15,49,999.90
2008,08,20,15,50,999.90
2008,08,20,15,51,999.90
2008,08,20,15,52,999.90
2008,08,20,15,53,999.90
2008,08,20,15,54,999.90
2008,08,20,15,55,999.90
2008,08,20,15,56,999.90
2008,08,20,15,57,999.90
2008,08,20,15,58,999.90
2008,08,20,15,59,999.90
2008,08,20,16,00,999.90
2008,08,20,16,01,999.90
2008,08,20,16,02,999.90
2008,08,20,16,03,999.90
2008,08,20,16,04,999.90